Time,TemperatureF,DewpointF,PressureIn,WindDirection,WindDirectionDegrees,WindSpeedMPH,WindSpeedGustMPH,Humidity,HourlyPrecipIn,Conditions,Clouds,dailyrainin,SoftwareType,DateUTC
2013-04-18 00:04:00,32.4,27.9,29.85,NE,45,22.0,22.0,83,0.00,,,0.00,meteohub,2013-04-18 05:04:00,
2013-04-18 00:10:00,32.4,27.9,29.85,North,0,21.0,22.0,83,0.00,,,0.00,meteohub,2013-04-18 05:10:00,
2013-04-18 00:15:00,32.4,27.9,29.85,North,0,19.0,22.0,83,0.00,,,0.00,meteohub,2013-04-18 05:15:00,
2013-04-18 00:20:00,32.4,27.9,29.85,NE,45,16.0,22.0,83,0.00,,,0.00,meteohub,2013-04-18 05:20:00,
2013-04-18 00:25:00,32.4,27.9,29.84,North,0,15.0,21.0,83,0.00,,,0.00,meteohub,2013-04-18 05:25:00,
2013-04-18 00:30:00,32.4,27.9,29.85,North,0,13.0,19.0,83,0.00,,,0.00,meteohub,2013-04-18 05:30:00,
2013-04-18 00:36:00,32.4,27.9,29.84,North,0,17.0,19.0,83,0.00,,,0.00,meteohub,2013-04-18 05:36:00,
2013-04-18 00:41:00,32.4,27.9,29.84,North,0,21.0,21.0,83,0.00,,,0.00,meteohub,2013-04-18 05:41:00,
2013-04-18 00:46:00,32.2,27.7,29.84,North,0,17.0,21.0,83,0.00,,,0.00,meteohub,2013-04-18 05:46:00,
2013-04-18 00:51:00,32.4,27.9,29.84,North,0,18.0,21.0,83,0.00,,,0.00,meteohub,2013-04-18 05:51:00,
2013-04-18 00:56:00,32.4,27.9,29.82,NNE,23,17.0,21.0,83,0.00,,,0.00,meteohub,2013-04-18 05:56:00,
2013-04-18 01:01:00,32.4,27.9,29.80,NNW,338,16.0,21.0,83,0.00,,,0.00,meteohub,2013-04-18 06:01:00,
2013-04-18 01:07:00,32.4,27.9,29.79,NNE,23,11.0,19.0,83,0.00,,,0.00,meteohub,2013-04-18 06:07:00,
2013-04-18 01:12:00,32.4,27.9,29.79,NNE,23,11.0,18.0,83,0.00,,,0.00,meteohub,2013-04-18 06:12:00,
2013-04-18 01:18:00,32.4,27.9,29.80,NE,45,0.0,17.0,83,0.00,,,0.00,meteohub,2013-04-18 06:18:00,
2013-04-18 01:23:00,32.2,27.7,29.80,NE,45,0.0,13.0,83,0.00,,,0.00,meteohub,2013-04-18 06:23:00,
2013-04-18 01:28:00,32.2,27.7,29.79,NE,45,0.0,12.0,83,0.00,,,0.00,meteohub,2013-04-18 06:28:00,
2013-04-18 01:33:00,32.2,27.7,29.78,NE,45,0.0,21.0,83,0.00,,,0.00,meteohub,2013-04-18 06:33:00,
2013-04-18 01:38:00,32.2,27.7,29.78,NE,45,0.0,21.0,83,0.00,,,0.00,meteohub,2013-04-18 06:38:00,
2013-04-18 01:43:00,32.2,27.3,29.76,North,0,0.0,21.0,82,0.00,,,0.00,meteohub,2013-04-18 06:43:00,
2013-04-18 01:48:00,32.2,27.3,29.75,North,0,0.0,0.0,82,0.00,,,0.00,meteohub,2013-04-18 06:48:00,
2013-04-18 01:53:00,32.2,27.3,29.75,NE,45,0.0,0.0,82,0.00,,,0.00,meteohub,2013-04-18 06:53:00,
2013-04-18 01:59:00,32.2,27.3,29.78,NNE,23,0.0,0.0,82,0.00,,,0.00,meteohub,2013-04-18 06:59:00,
2013-04-18 02:04:00,32.2,27.3,29.79,North,-999,-999.0,0.0,82,0.00,,,0.00,meteohub,2013-04-18 07:04:00,
2013-04-18 02:09:00,32.2,27.3,29.78,SW,225,0.0,0.0,82,0.00,,,0.00,meteohub,2013-04-18 07:09:00,
2013-04-18 02:14:00,32.2,27.3,29.80,NE,45,0.0,0.0,82,0.00,,,0.00,meteohub,2013-04-18 07:14:00,
2013-04-18 02:19:00,32.2,27.3,29.80,WSW,248,0.0,0.0,82,0.00,,,0.00,meteohub,2013-04-18 07:19:00,
2013-04-18 02:24:00,32.2,27.3,29.79,North,0,0.0,0.0,82,0.00,,,0.00,meteohub,2013-04-18 07:24:00,
2013-04-18 02:29:00,32.2,27.3,29.77,North,-999,-999.0,0.0,82,0.00,,,0.00,meteohub,2013-04-18 07:29:00,
2013-04-18 02:35:00,32.2,27.3,29.77,North,0,0.0,0.0,82,0.00,,,0.00,meteohub,2013-04-18 07:35:00,
2013-04-18 02:40:00,32.2,27.3,29.77,NNE,23,0.0,0.0,82,0.00,,,0.00,meteohub,2013-04-18 07:40:00,
2013-04-18 02:45:00,32.2,27.3,29.78,North,-999,-999.0,0.0,82,0.00,,,0.00,meteohub,2013-04-18 07:45:00,
2013-04-18 02:50:00,32.2,27.0,29.77,NNE,23,4.0,0.0,81,0.00,,,0.00,meteohub,2013-04-18 07:50:00,
2013-04-18 02:56:00,32.2,27.0,29.77,NNE,23,8.0,8.0,81,0.00,,,0.00,meteohub,2013-04-18 07:56:00,
2013-04-18 03:01:00,32.2,27.0,29.78,NNE,23,0.0,9.0,81,0.00,,,0.00,meteohub,2013-04-18 08:01:00,
2013-04-18 03:06:00,32.2,27.0,29.78,North,-999,-999.0,9.0,81,0.00,,,0.00,meteohub,2013-04-18 08:06:00,
2013-04-18 03:11:00,32.2,27.0,29.78,NNE,23,1.0,9.0,81,0.00,,,0.00,meteohub,2013-04-18 08:11:00,
2013-04-18 03:16:00,32.2,27.0,29.78,North,0,0.0,2.0,81,0.00,,,0.00,meteohub,2013-04-18 08:16:00,
2013-04-18 03:22:00,32.2,27.0,29.78,North,0,2.0,8.0,81,0.00,,,0.00,meteohub,2013-04-18 08:22:00,
2013-04-18 03:27:00,32.0,26.8,29.79,North,0,0.0,8.0,81,0.00,,,0.00,meteohub,2013-04-18 08:27:00,
2013-04-18 03:32:00,32.0,26.8,29.79,NNE,23,9.0,9.0,81,0.00,,,0.00,meteohub,2013-04-18 08:32:00,
2013-04-18 03:37:00,32.0,26.8,29.78,NE,45,2.0,9.0,81,0.00,,,0.00,meteohub,2013-04-18 08:37:00,
2013-04-18 03:42:00,32.0,26.8,29.80,North,0,10.0,10.0,81,0.00,,,0.00,meteohub,2013-04-18 08:42:00,
2013-04-18 03:47:00,32.2,27.0,29.82,North,0,10.0,10.0,81,0.00,,,0.00,meteohub,2013-04-18 08:47:00,
2013-04-18 03:53:00,32.4,27.1,29.83,WNW,293,4.0,10.0,81,0.00,,,0.00,meteohub,2013-04-18 08:53:00,
2013-04-18 03:58:00,32.4,27.1,29.82,North,-999,-999.0,10.0,81,0.00,,,0.00,meteohub,2013-04-18 08:58:00,
2013-04-18 04:03:00,32.5,27.3,29.81,North,-999,-999.0,4.0,81,0.00,,,0.00,meteohub,2013-04-18 09:03:00,
2013-04-18 04:08:00,32.4,27.1,29.79,North,-999,-999.0,-999.0,81,0.00,,,0.00,meteohub,2013-04-18 09:08:00,
2013-04-18 04:14:00,32.2,27.0,29.79,NNE,23,0.0,-999.0,81,0.00,,,0.00,meteohub,2013-04-18 09:14:00,
2013-04-18 04:19:00,32.0,26.8,29.77,SW,225,0.0,0.0,81,0.00,,,0.00,meteohub,2013-04-18 09:19:00,
2013-04-18 04:24:00,32.0,26.8,29.75,NNW,338,0.0,0.0,81,0.00,,,0.00,meteohub,2013-04-18 09:24:00,
2013-04-18 04:29:00,32.0,26.8,29.73,North,0,0.0,0.0,81,0.00,,,0.00,meteohub,2013-04-18 09:29:00,
2013-04-18 04:34:00,32.0,26.8,29.73,NE,45,0.0,0.0,81,0.00,,,0.00,meteohub,2013-04-18 09:34:00,
2013-04-18 04:39:00,32.0,26.8,29.73,NNE,23,0.0,0.0,81,0.00,,,0.00,meteohub,2013-04-18 09:39:00,
2013-04-18 04:44:00,31.8,27.0,29.75,North,0,4.0,0.0,82,0.00,,,0.00,meteohub,2013-04-18 09:44:00,
2013-04-18 04:49:00,31.8,27.0,29.75,NNE,23,0.0,10.0,82,0.00,,,0.00,meteohub,2013-04-18 09:49:00,
2013-04-18 04:54:00,31.8,27.0,29.76,NNE,23,8.0,10.0,82,0.00,,,0.00,meteohub,2013-04-18 09:54:00,
2013-04-18 05:00:00,31.8,27.0,29.76,NNE,23,3.0,11.0,82,0.00,,,0.00,meteohub,2013-04-18 10:00:00,
2013-04-18 05:05:00,31.8,27.0,29.76,North,-999,-999.0,11.0,82,0.00,,,0.00,meteohub,2013-04-18 10:05:00,
2013-04-18 05:10:00,31.6,26.8,29.74,NNE,23,8.0,11.0,82,0.00,,,0.00,meteohub,2013-04-18 10:10:00,
2013-04-18 05:15:00,31.6,26.8,29.74,NNE,23,10.0,10.0,82,0.00,,,0.00,meteohub,2013-04-18 10:15:00,
2013-04-18 05:20:00,31.6,26.8,29.73,North,0,11.0,11.0,82,0.00,,,0.00,meteohub,2013-04-18 10:20:00,
2013-04-18 05:26:00,31.6,26.8,29.73,North,0,5.0,11.0,82,0.00,,,0.00,meteohub,2013-04-18 10:26:00,
2013-04-18 05:31:00,31.6,26.8,29.72,North,0,0.0,11.0,82,0.00,,,0.00,meteohub,2013-04-18 10:31:00,
2013-04-18 05:36:00,31.6,26.8,29.73,North,0,5.0,5.0,82,0.00,,,0.00,meteohub,2013-04-18 10:36:00,
2013-04-18 05:41:00,31.8,27.0,29.74,North,0,5.0,22.0,82,0.00,,,0.00,meteohub,2013-04-18 10:41:00,
2013-04-18 05:47:00,32.0,26.8,29.74,North,0,0.0,22.0,81,0.00,,,0.00,meteohub,2013-04-18 10:47:00,
2013-04-18 05:52:00,32.0,26.8,29.73,NNW,338,0.0,5.0,81,0.00,,,0.00,meteohub,2013-04-18 10:52:00,
2013-04-18 05:57:00,32.0,26.8,29.72,North,-999,-999.0,0.0,81,0.00,,,0.00,meteohub,2013-04-18 10:57:00,
2013-04-18 06:02:00,31.6,26.8,29.72,North,0,0.0,0.0,82,0.00,,,0.00,meteohub,2013-04-18 11:02:00,
2013-04-18 06:07:00,31.8,27.0,29.70,NE,45,0.0,0.0,82,0.00,,,0.00,meteohub,2013-04-18 11:07:00,
2013-04-18 06:13:00,31.6,26.8,29.70,North,0,0.0,0.0,82,0.00,,,0.00,meteohub,2013-04-18 11:13:00,
2013-04-18 06:18:00,31.6,26.8,29.70,NNE,23,0.0,0.0,82,0.00,,,0.00,meteohub,2013-04-18 11:18:00,
2013-04-18 06:23:00,32.0,26.8,29.70,North,-999,-999.0,0.0,81,0.00,,,0.00,meteohub,2013-04-18 11:23:00,
2013-04-18 06:28:00,32.0,26.8,29.71,North,0,0.0,0.0,81,0.00,,,0.00,meteohub,2013-04-18 11:28:00,
2013-04-18 06:33:00,32.2,27.0,29.71,WNW,293,0.0,0.0,81,0.00,,,0.00,meteohub,2013-04-18 11:33:00,
2013-04-18 06:38:00,32.2,27.0,29.70,North,0,0.0,0.0,81,0.00,,,0.00,meteohub,2013-04-18 11:38:00,
2013-04-18 06:43:00,32.0,26.8,29.69,North,0,0.0,0.0,81,0.00,,,0.00,meteohub,2013-04-18 11:43:00,
2013-04-18 06:48:00,31.8,27.0,29.69,NE,45,0.0,0.0,82,0.00,,,0.00,meteohub,2013-04-18 11:48:00,
2013-04-18 06:54:00,31.8,27.0,29.70,North,0,0.0,0.0,82,0.00,,,0.00,meteohub,2013-04-18 11:54:00,
2013-04-18 06:59:00,31.8,27.0,29.72,North,0,0.0,0.0,82,0.00,,,0.00,meteohub,2013-04-18 11:59:00,
2013-04-18 07:04:00,32.0,26.8,29.72,North,0,0.0,0.0,81,0.00,,,0.00,meteohub,2013-04-18 12:04:00,
2013-04-18 07:09:00,32.0,26.8,29.72,North,0,0.0,0.0,81,0.00,,,0.00,meteohub,2013-04-18 12:09:00,
2013-04-18 07:14:00,31.8,27.0,29.71,North,0,0.0,0.0,82,0.00,,,0.00,meteohub,2013-04-18 12:14:00,
2013-04-18 07:19:00,31.8,26.6,29.70,NE,45,0.0,0.0,81,0.00,,,0.00,meteohub,2013-04-18 12:19:00,
2013-04-18 07:24:00,31.8,26.6,29.70,NNE,23,0.0,0.0,81,0.00,,,0.00,meteohub,2013-04-18 12:24:00,
2013-04-18 07:29:00,31.8,26.6,29.70,SW,225,0.0,0.0,81,0.00,,,0.00,meteohub,2013-04-18 12:29:00,
2013-04-18 07:35:00,31.8,26.6,29.70,North,0,0.0,0.0,81,0.00,,,0.00,meteohub,2013-04-18 12:35:00,
2013-04-18 07:40:00,31.8,26.6,29.70,North,0,0.0,0.0,81,0.00,,,0.00,meteohub,2013-04-18 12:40:00,
2013-04-18 07:45:00,31.8,26.6,29.69,North,0,0.0,0.0,81,0.00,,,0.00,meteohub,2013-04-18 12:45:00,
2013-04-18 07:50:00,31.8,26.6,29.70,NNE,23,0.0,0.0,81,0.00,,,0.00,meteohub,2013-04-18 12:50:00,
2013-04-18 07:55:00,31.8,26.6,29.70,NNE,23,0.0,0.0,81,0.00,,,0.00,meteohub,2013-04-18 12:55:00,
2013-04-18 08:00:00,31.8,26.6,29.69,North,0,0.0,0.0,81,0.00,,,0.00,meteohub,2013-04-18 13:00:00,
2013-04-18 08:05:00,31.8,26.6,29.69,North,-999,-999.0,0.0,81,0.00,,,0.00,meteohub,2013-04-18 13:05:00,
2013-04-18 08:10:00,31.6,26.4,29.68,North,-999,-999.0,0.0,81,0.00,,,0.00,meteohub,2013-04-18 13:10:00,
2013-04-18 08:16:00,31.6,26.4,29.69,North,0,0.0,0.0,81,0.00,,,0.00,meteohub,2013-04-18 13:16:00,
2013-04-18 08:21:00,31.6,26.4,29.69,North,0,0.0,0.0,81,0.00,,,0.00,meteohub,2013-04-18 13:21:00,
2013-04-18 08:26:00,31.6,26.4,29.69,North,0,0.0,0.0,81,0.00,,,0.00,meteohub,2013-04-18 13:26:00,
2013-04-18 08:32:00,31.6,26.4,29.68,North,0,0.0,0.0,81,0.00,,,0.00,meteohub,2013-04-18 13:32:00,
2013-04-18 08:37:00,31.6,26.4,29.67,North,0,0.0,0.0,81,0.00,,,0.00,meteohub,2013-04-18 13:37:00,
2013-04-18 08:42:00,31.5,26.2,29.67,North,0,0.0,0.0,81,0.00,,,0.00,meteohub,2013-04-18 13:42:00,
2013-04-18 08:48:00,31.5,26.2,29.67,NE,45,0.0,0.0,81,0.00,,,0.00,meteohub,2013-04-18 13:48:00,
2013-04-18 08:53:00,31.5,26.2,29.66,North,0,0.0,0.0,81,0.00,,,0.00,meteohub,2013-04-18 13:53:00,
2013-04-18 08:58:00,31.5,26.2,29.64,North,0,0.0,2.0,81,0.00,,,0.00,meteohub,2013-04-18 13:58:00,
2013-04-18 09:03:00,31.5,26.2,29.65,North,0,0.0,2.0,81,0.00,,,0.00,meteohub,2013-04-18 14:03:00,
2013-04-18 09:08:00,31.5,26.2,29.65,North,0,0.0,0.0,81,0.00,,,0.00,meteohub,2013-04-18 14:08:00,
2013-04-18 09:13:00,31.5,26.2,29.63,WSW,248,0.0,0.0,81,0.00,,,0.00,meteohub,2013-04-18 14:13:00,
2013-04-18 09:18:00,31.5,26.2,29.64,North,0,0.0,0.0,81,0.00,,,0.00,meteohub,2013-04-18 14:18:00,
2013-04-18 09:24:00,31.5,26.2,29.63,North,0,0.0,0.0,81,0.00,,,0.00,meteohub,2013-04-18 14:24:00,
2013-04-18 09:29:00,31.5,26.2,29.63,North,0,0.0,0.0,81,0.00,,,0.00,meteohub,2013-04-18 14:29:00,
2013-04-18 12:13:00,32.5,27.7,29.62,North,0,0.0,0.0,82,0.00,,,0.00,meteohub,2013-04-18 17:13:00,
2013-04-18 12:18:00,32.5,27.7,29.62,North,0,0.0,0.0,82,0.00,,,0.00,meteohub,2013-04-18 17:18:00,
2013-04-18 12:23:00,32.5,27.7,29.61,North,0,0.0,0.0,82,0.00,,,0.00,meteohub,2013-04-18 17:23:00,
2013-04-18 12:29:00,32.4,27.5,29.61,North,0,0.0,0.0,82,0.00,,,0.00,meteohub,2013-04-18 17:29:00,
2013-04-18 12:34:00,32.4,27.5,29.61,North,0,0.0,0.0,82,0.00,,,0.00,meteohub,2013-04-18 17:34:00,
2013-04-18 12:39:00,32.2,27.7,29.61,North,0,0.0,0.0,83,0.00,,,0.00,meteohub,2013-04-18 17:39:00,
2013-04-18 12:44:00,32.2,27.7,29.61,North,0,0.0,0.0,83,0.00,,,0.00,meteohub,2013-04-18 17:44:00,
2013-04-18 12:50:00,32.4,27.9,29.61,North,0,0.0,0.0,83,0.00,,,0.00,meteohub,2013-04-18 17:50:00,
2013-04-18 12:55:00,32.5,28.0,29.61,North,0,0.0,0.0,83,0.00,,,0.00,meteohub,2013-04-18 17:55:00,
2013-04-18 13:00:00,32.5,28.0,29.61,North,0,0.0,0.0,83,0.00,,,0.00,meteohub,2013-04-18 18:00:00,
2013-04-18 13:05:00,32.5,28.0,29.61,North,0,0.0,0.0,83,0.00,,,0.00,meteohub,2013-04-18 18:05:00,
2013-04-18 13:10:00,32.5,28.0,29.62,North,0,0.0,0.0,83,0.00,,,0.00,meteohub,2013-04-18 18:10:00,
2013-04-18 13:15:00,32.4,27.9,29.60,North,0,0.0,0.0,83,0.00,,,0.00,meteohub,2013-04-18 18:15:00,
2013-04-18 13:21:00,32.4,27.9,29.60,North,0,0.0,0.0,83,0.00,,,0.00,meteohub,2013-04-18 18:21:00,
2013-04-18 13:26:00,32.4,27.9,29.60,North,0,0.0,0.0,83,0.00,,,0.00,meteohub,2013-04-18 18:26:00,
2013-04-18 13:31:00,32.2,27.7,29.60,North,0,0.0,0.0,83,0.00,,,0.00,meteohub,2013-04-18 18:31:00,
2013-04-18 13:37:00,32.2,27.7,29.59,North,0,0.0,0.0,83,0.00,,,0.00,meteohub,2013-04-18 18:37:00,
2013-04-18 13:42:00,32.2,27.7,29.59,North,0,0.0,0.0,83,0.00,,,0.00,meteohub,2013-04-18 18:42:00,
2013-04-18 13:47:00,32.4,27.9,29.59,North,0,0.0,0.0,83,0.00,,,0.00,meteohub,2013-04-18 18:47:00,
2013-04-18 13:52:00,32.2,27.7,29.58,North,0,0.0,0.0,83,0.00,,,0.00,meteohub,2013-04-18 18:52:00,
2013-04-18 13:57:00,32.2,27.7,29.58,North,0,0.0,0.0,83,0.00,,,0.00,meteohub,2013-04-18 18:57:00,
2013-04-18 14:02:00,32.2,27.7,29.58,North,0,0.0,0.0,83,0.00,,,0.00,meteohub,2013-04-18 19:02:00,
2013-04-18 14:07:00,32.2,27.7,29.57,North,0,0.0,0.0,83,0.00,,,0.00,meteohub,2013-04-18 19:07:00,
2013-04-18 14:13:00,32.2,27.7,29.59,North,0,0.0,0.0,83,0.00,,,0.00,meteohub,2013-04-18 19:13:00,
2013-04-18 14:18:00,32.2,27.7,29.59,North,0,0.0,0.0,83,0.00,,,0.00,meteohub,2013-04-18 19:18:00,
2013-04-18 14:23:00,32.2,27.7,29.59,North,0,0.0,0.0,83,0.00,,,0.00,meteohub,2013-04-18 19:23:00,
2013-04-18 14:28:00,32.2,27.7,29.58,North,0,0.0,0.0,83,0.00,,,0.00,meteohub,2013-04-18 19:28:00,
2013-04-18 14:33:00,32.2,27.7,29.58,North,0,0.0,0.0,83,0.00,,,0.00,meteohub,2013-04-18 19:33:00,
2013-04-18 14:39:00,32.4,27.9,29.57,North,0,0.0,0.0,83,0.00,,,0.00,meteohub,2013-04-18 19:39:00,
2013-04-18 14:44:00,32.4,27.9,29.56,North,0,0.0,21.0,83,0.00,,,0.00,meteohub,2013-04-18 19:44:00,
2013-04-18 14:49:00,32.4,27.9,29.56,North,0,0.0,21.0,83,0.00,,,0.00,meteohub,2013-04-18 19:49:00,
2013-04-18 14:54:00,32.5,28.0,29.57,North,0,0.0,0.0,83,0.00,,,0.00,meteohub,2013-04-18 19:54:00,
2013-04-18 14:59:00,32.5,28.0,29.58,North,0,0.0,0.0,83,0.00,,,0.00,meteohub,2013-04-18 19:59:00,
2013-04-18 15:04:00,32.5,28.0,29.57,North,0,0.0,0.0,83,0.00,,,0.00,meteohub,2013-04-18 20:04:00,
2013-04-18 15:09:00,32.5,28.0,29.57,North,0,0.0,0.0,83,0.00,,,0.00,meteohub,2013-04-18 20:09:00,
2013-04-18 15:15:00,32.5,28.0,29.57,North,0,0.0,0.0,83,0.00,,,0.00,meteohub,2013-04-18 20:15:00,
2013-04-18 15:20:00,32.4,27.9,29.58,North,0,0.0,0.0,83,0.00,,,0.00,meteohub,2013-04-18 20:20:00,
2013-04-18 15:25:00,32.4,27.9,29.59,North,0,0.0,0.0,83,0.00,,,0.00,meteohub,2013-04-18 20:25:00,
2013-04-18 15:30:00,32.4,27.9,29.56,North,0,0.0,0.0,83,0.00,,,0.00,meteohub,2013-04-18 20:30:00,
2013-04-18 15:36:00,32.2,27.7,29.56,North,0,0.0,0.0,83,0.00,,,0.00,meteohub,2013-04-18 20:36:00,
2013-04-18 15:41:00,32.0,27.5,29.57,North,0,0.0,0.0,83,0.00,,,0.00,meteohub,2013-04-18 20:41:00,
2013-04-18 15:47:00,32.0,27.5,29.57,North,0,0.0,0.0,83,0.00,,,0.00,meteohub,2013-04-18 20:47:00,
2013-04-18 15:52:00,32.0,27.5,29.57,WNW,293,0.0,0.0,83,0.00,,,0.00,meteohub,2013-04-18 20:52:00,
2013-04-18 15:57:00,31.8,27.5,29.57,North,0,0.0,0.0,84,0.00,,,0.00,meteohub,2013-04-18 20:57:00,
2013-04-18 16:02:00,31.5,27.1,29.55,North,0,0.0,0.0,84,0.00,,,0.00,meteohub,2013-04-18 21:02:00,
2013-04-18 16:07:00,31.3,26.8,29.55,North,0,0.0,0.0,83,0.00,,,0.00,meteohub,2013-04-18 21:07:00,
2013-04-18 16:12:00,31.3,26.8,29.55,North,0,0.0,0.0,83,0.00,,,0.00,meteohub,2013-04-18 21:12:00,
2013-04-18 16:17:00,31.1,26.6,29.55,North,0,0.0,0.0,83,0.00,,,0.00,meteohub,2013-04-18 21:17:00,
2013-04-18 16:22:00,31.1,26.6,29.56,North,0,0.0,0.0,83,0.00,,,0.00,meteohub,2013-04-18 21:22:00,
2013-04-18 16:28:00,31.1,26.6,29.56,North,0,0.0,0.0,83,0.00,,,0.00,meteohub,2013-04-18 21:28:00,
2013-04-18 16:33:00,31.1,26.6,29.56,North,0,0.0,0.0,83,0.00,,,0.00,meteohub,2013-04-18 21:33:00,
2013-04-18 16:38:00,30.9,26.4,29.55,North,0,0.0,0.0,83,0.00,,,0.00,meteohub,2013-04-18 21:38:00,
2013-04-18 16:43:00,30.9,26.4,29.55,North,0,0.0,0.0,83,0.00,,,0.00,meteohub,2013-04-18 21:43:00,
2013-04-18 16:48:00,30.9,26.4,29.56,North,0,0.0,0.0,83,0.00,,,0.00,meteohub,2013-04-18 21:48:00,
2013-04-18 16:53:00,30.9,26.4,29.56,North,0,0.0,0.0,83,0.00,,,0.00,meteohub,2013-04-18 21:53:00,
2013-04-18 16:58:00,30.7,26.2,29.56,North,0,0.0,0.0,83,0.00,,,0.00,meteohub,2013-04-18 21:58:00,
2013-04-18 17:04:00,30.7,26.2,29.56,North,0,0.0,0.0,83,0.00,,,0.00,meteohub,2013-04-18 22:04:00,
2013-04-18 17:09:00,30.7,26.2,29.56,North,0,0.0,0.0,83,0.00,,,0.00,meteohub,2013-04-18 22:09:00,
2013-04-18 17:14:00,30.9,26.4,29.55,North,0,0.0,0.0,83,0.00,,,0.00,meteohub,2013-04-18 22:14:00,
2013-04-18 17:19:00,30.7,26.2,29.55,North,0,0.0,0.0,83,0.00,,,0.00,meteohub,2013-04-18 22:19:00,
2013-04-18 17:24:00,30.7,26.2,29.56,North,0,0.0,0.0,83,0.00,,,0.00,meteohub,2013-04-18 22:24:00,
2013-04-18 17:29:00,30.9,26.4,29.56,North,0,0.0,0.0,83,0.00,,,0.00,meteohub,2013-04-18 22:29:00,
2013-04-18 17:34:00,30.9,26.6,29.56,North,0,0.0,0.0,84,0.00,,,0.00,meteohub,2013-04-18 22:34:00,
2013-04-18 17:39:00,30.9,26.6,29.56,North,0,0.0,0.0,84,0.00,,,0.00,meteohub,2013-04-18 22:39:00,
2013-04-18 17:44:00,30.9,26.6,29.55,North,0,0.0,0.0,84,0.00,,,0.00,meteohub,2013-04-18 22:44:00,
2013-04-18 17:49:00,30.9,26.6,29.55,North,0,0.0,0.0,84,0.00,,,0.00,meteohub,2013-04-18 22:49:00,
2013-04-18 17:54:00,30.9,26.6,29.55,North,0,0.0,0.0,84,0.00,,,0.00,meteohub,2013-04-18 22:54:00,
2013-04-18 17:59:00,30.9,26.6,29.55,North,0,0.0,0.0,84,0.00,,,0.00,meteohub,2013-04-18 22:59:00,
2013-04-18 18:04:00,30.9,26.6,29.55,North,0,0.0,0.0,84,0.00,,,0.00,meteohub,2013-04-18 23:04:00,
2013-04-18 18:10:00,30.7,26.4,29.55,North,0,0.0,0.0,84,0.00,,,0.00,meteohub,2013-04-18 23:10:00,
2013-04-18 18:15:00,30.6,26.2,29.56,North,0,0.0,0.0,84,0.00,,,0.00,meteohub,2013-04-18 23:15:00,
2013-04-18 18:20:00,30.6,26.2,29.56,North,0,0.0,0.0,84,0.00,,,0.00,meteohub,2013-04-18 23:20:00,
2013-04-18 18:25:00,30.6,26.2,29.56,North,0,0.0,0.0,84,0.00,,,0.00,meteohub,2013-04-18 23:25:00,
2013-04-18 18:30:00,30.6,26.2,29.56,North,0,0.0,0.0,84,0.00,,,0.00,meteohub,2013-04-18 23:30:00,
2013-04-18 18:36:00,30.6,26.2,29.57,North,0,0.0,0.0,84,0.00,,,0.00,meteohub,2013-04-18 23:36:00,
2013-04-18 18:41:00,30.6,26.2,29.56,North,0,0.0,0.0,84,0.00,,,0.00,meteohub,2013-04-18 23:41:00,
2013-04-18 18:46:00,30.6,26.2,29.56,North,0,0.0,0.0,84,0.00,,,0.00,meteohub,2013-04-18 23:46:00,
2013-04-18 18:51:00,30.6,26.2,29.56,North,0,0.0,0.0,84,0.00,,,0.00,meteohub,2013-04-18 23:51:00,
2013-04-18 18:56:00,30.6,26.2,29.57,North,0,0.0,0.0,84,0.00,,,0.00,meteohub,2013-04-18 23:56:00,
2013-04-18 19:01:00,30.7,26.4,29.57,North,0,0.0,0.0,84,0.00,,,0.00,meteohub,2013-04-19 00:01:00,
2013-04-18 19:07:00,30.7,26.4,29.57,North,0,0.0,0.0,84,0.00,,,0.00,meteohub,2013-04-19 00:07:00,
2013-04-18 19:12:00,30.7,26.4,29.57,North,0,0.0,0.0,84,0.00,,,0.00,meteohub,2013-04-19 00:12:00,
2013-04-18 19:17:00,30.7,26.4,29.56,North,0,0.0,0.0,84,0.00,,,0.00,meteohub,2013-04-19 00:17:00,
2013-04-18 19:22:00,30.7,26.4,29.57,North,0,0.0,0.0,84,0.00,,,0.00,meteohub,2013-04-19 00:22:00,
2013-04-18 19:27:00,30.6,26.2,29.57,North,0,0.0,0.0,84,0.00,,,0.00,meteohub,2013-04-19 00:27:00,
2013-04-18 19:32:00,30.6,26.2,29.57,North,0,0.0,0.0,84,0.00,,,0.00,meteohub,2013-04-19 00:32:00,
2013-04-18 19:37:00,30.6,26.2,29.58,North,0,0.0,0.0,84,0.00,,,0.00,meteohub,2013-04-19 00:37:00,
2013-04-18 19:42:00,30.6,26.2,29.58,North,0,0.0,0.0,84,0.00,,,0.00,meteohub,2013-04-19 00:42:00,
2013-04-18 19:47:00,30.4,26.1,29.58,North,0,0.0,0.0,84,0.00,,,0.00,meteohub,2013-04-19 00:47:00,
2013-04-18 19:52:00,30.4,26.1,29.58,North,0,0.0,0.0,84,0.00,,,0.00,meteohub,2013-04-19 00:52:00,
2013-04-18 19:57:00,30.4,26.1,29.58,North,0,0.0,0.0,84,0.00,,,0.00,meteohub,2013-04-19 00:57:00,
2013-04-18 20:03:00,30.6,26.2,29.59,North,0,0.0,0.0,84,0.00,,,0.00,meteohub,2013-04-19 01:03:00,
2013-04-18 20:08:00,30.6,26.2,29.58,North,0,0.0,0.0,84,0.00,,,0.00,meteohub,2013-04-19 01:08:00,
2013-04-18 20:13:00,30.6,26.2,29.58,North,0,0.0,0.0,84,0.00,,,0.00,meteohub,2013-04-19 01:13:00,
2013-04-18 20:18:00,30.6,26.2,29.58,North,0,0.0,0.0,84,0.00,,,0.00,meteohub,2013-04-19 01:18:00,
2013-04-18 20:23:00,30.6,26.2,29.58,North,0,0.0,0.0,84,0.00,,,0.00,meteohub,2013-04-19 01:23:00,
2013-04-18 20:28:00,30.6,26.2,29.59,North,0,0.0,0.0,84,0.00,,,0.00,meteohub,2013-04-19 01:28:00,
2013-04-18 20:33:00,30.4,26.1,29.58,North,0,0.0,0.0,84,0.00,,,0.00,meteohub,2013-04-19 01:33:00,
2013-04-18 20:38:00,30.4,26.1,29.58,North,0,0.0,0.0,84,0.00,,,0.00,meteohub,2013-04-19 01:38:00,
2013-04-18 20:43:00,30.4,26.1,29.59,North,0,0.0,0.0,84,0.00,,,0.00,meteohub,2013-04-19 01:43:00,
2013-04-18 20:48:00,30.2,25.9,29.59,North,0,0.0,0.0,84,0.00,,,0.00,meteohub,2013-04-19 01:48:00,
2013-04-18 20:53:00,30.2,25.9,29.59,North,0,0.0,0.0,84,0.00,,,0.00,meteohub,2013-04-19 01:53:00,
2013-04-18 20:58:00,30.2,25.9,29.59,North,0,0.0,0.0,84,0.00,,,0.00,meteohub,2013-04-19 01:58:00,
2013-04-18 21:03:00,30.2,25.9,29.58,North,0,0.0,0.0,84,0.00,,,0.00,meteohub,2013-04-19 02:03:00,
2013-04-18 21:08:00,30.2,25.9,29.59,North,0,0.0,0.0,84,0.00,,,0.00,meteohub,2013-04-19 02:08:00,
2013-04-18 21:14:00,30.2,25.9,29.59,North,0,0.0,0.0,84,0.00,,,0.00,meteohub,2013-04-19 02:14:00,
2013-04-18 21:19:00,30.2,25.9,29.60,North,0,0.0,0.0,84,0.00,,,0.00,meteohub,2013-04-19 02:19:00,
2013-04-18 21:24:00,30.2,25.9,29.59,North,0,0.0,0.0,84,0.00,,,0.00,meteohub,2013-04-19 02:24:00,
2013-04-18 21:29:00,30.2,25.9,29.59,North,0,0.0,0.0,84,0.00,,,0.00,meteohub,2013-04-19 02:29:00,
2013-04-18 21:34:00,30.2,25.9,29.60,North,0,0.0,0.0,84,0.00,,,0.00,meteohub,2013-04-19 02:34:00,
2013-04-18 21:39:00,30.2,25.9,29.60,North,0,0.0,0.0,84,0.00,,,0.00,meteohub,2013-04-19 02:39:00,
2013-04-18 21:44:00,30.2,25.9,29.60,North,0,0.0,23.0,84,0.00,,,0.00,meteohub,2013-04-19 02:44:00,
2013-04-18 21:49:00,30.2,25.9,29.59,North,0,0.0,23.0,84,0.00,,,0.00,meteohub,2013-04-19 02:49:00,
2013-04-18 21:54:00,30.2,25.9,29.59,North,0,0.0,23.0,84,0.00,,,0.00,meteohub,2013-04-19 02:54:00,
2013-04-18 21:59:00,30.2,25.9,29.59,North,0,0.0,0.0,84,0.00,,,0.00,meteohub,2013-04-19 02:59:00,
2013-04-18 22:04:00,30.2,25.9,29.59,North,0,0.0,0.0,84,0.00,,,0.00,meteohub,2013-04-19 03:04:00,
2013-04-18 22:10:00,30.2,25.9,29.59,North,0,0.0,0.0,84,0.00,,,0.00,meteohub,2013-04-19 03:10:00,
2013-04-18 22:15:00,30.2,26.2,29.59,North,0,0.0,0.0,85,0.00,,,0.00,meteohub,2013-04-19 03:15:00,
2013-04-18 22:20:00,30.2,26.2,29.59,North,0,0.0,0.0,85,0.00,,,0.00,meteohub,2013-04-19 03:20:00,
2013-04-18 22:25:00,30.2,26.2,29.59,North,0,0.0,0.0,85,0.00,,,0.00,meteohub,2013-04-19 03:25:00,
2013-04-18 22:30:00,30.2,25.9,29.58,North,0,0.0,0.0,84,0.00,,,0.00,meteohub,2013-04-19 03:30:00,
2013-04-18 22:35:00,30.2,26.2,29.59,North,0,0.0,0.0,85,0.00,,,0.00,meteohub,2013-04-19 03:35:00,
2013-04-18 22:40:00,30.2,26.2,29.58,North,0,0.0,0.0,85,0.00,,,0.00,meteohub,2013-04-19 03:40:00,
2013-04-18 22:45:00,30.2,26.2,29.57,North,0,0.0,0.0,85,0.00,,,0.00,meteohub,2013-04-19 03:45:00,
2013-04-18 22:51:00,30.2,26.2,29.57,North,0,0.0,0.0,85,0.00,,,0.00,meteohub,2013-04-19 03:51:00,
2013-04-18 22:56:00,30.2,26.2,29.58,North,0,0.0,0.0,85,0.00,,,0.00,meteohub,2013-04-19 03:56:00,
2013-04-18 23:01:00,30.4,26.4,29.57,North,0,0.0,0.0,85,0.00,,,0.00,meteohub,2013-04-19 04:01:00,
2013-04-18 23:04:00,30.4,26.4,29.57,North,0,0.0,0.0,85,0.00,,,0.00,meteohub,2013-04-19 04:04:00,
2013-04-18 23:07:00,30.4,26.4,29.57,North,0,0.0,0.0,85,0.00,,,0.00,meteohub,2013-04-19 04:07:00,
2013-04-18 23:12:00,30.4,26.4,29.57,North,0,0.0,0.0,85,0.00,,,0.00,meteohub,2013-04-19 04:12:00,
2013-04-18 23:17:00,30.6,26.6,29.56,North,0,0.0,0.0,85,0.00,,,0.00,meteohub,2013-04-19 04:17:00,
2013-04-18 23:22:00,30.6,26.6,29.56,North,0,0.0,0.0,85,0.00,,,0.00,meteohub,2013-04-19 04:22:00,
2013-04-18 23:28:00,30.6,26.6,29.56,North,0,0.0,0.0,85,0.00,,,0.00,meteohub,2013-04-19 04:28:00,
2013-04-18 23:33:00,30.4,26.4,29.56,North,0,0.0,0.0,85,0.00,,,0.00,meteohub,2013-04-19 04:33:00,
2013-04-18 23:38:00,30.4,26.4,29.56,North,0,0.0,0.0,85,0.00,,,0.00,meteohub,2013-04-19 04:38:00,
2013-04-18 23:43:00,30.4,26.4,29.55,North,0,0.0,0.0,85,0.00,,,0.00,meteohub,2013-04-19 04:43:00,
2013-04-18 23:48:00,30.2,26.2,29.55,North,0,0.0,0.0,85,0.00,,,0.00,meteohub,2013-04-19 04:48:00,
2013-04-18 23:53:00,30.2,26.2,29.54,North,0,0.0,0.0,85,0.00,,,0.00,meteohub,2013-04-19 04:53:00,
2013-04-18 23:58:00,30.2,26.2,29.54,North,0,0.0,0.0,85,0.00,,,0.00,meteohub,2013-04-19 04:58:00,